Simultaneous Nadir Overpasses (SNOs) Predictions

Prediction of SNOs between LANDSAT-8 and NOAA-19 Satellite Orbit:

Table of predicted SNOs for the next 14.0 days since TLE Epoch: 3/12/2022
Index Date (LANDSAT-8) Time (LANDSAT-8) Lat,Lon (LANDSAT-8) SZA (LANDSAT-8 ) Date (NOAA-19) Time (NOAA-19) Lat,Lon (NOAA-19) SZA (NOAA-19 ) Distance(km) Time Diff (sec)
1 03/12/2022 21:25:58 80.73,-107.17 85.14 03/12/2022 21:24:52 80.73,-107.31 85.12 2.70 66
2 03/12/2022 22:15:25 -80.72, 60.43 94.88 03/12/2022 22:15:50 -80.73, 60.25 94.89 3.18 25
3 03/15/2022 03:49:07 80.73, 157.15 84.28 03/15/2022 03:48:52 80.73, 157.04 84.26 2.27 15
4 03/15/2022 04:38:35 -80.70, -35.56 95.79 03/15/2022 04:39:40 -80.58, -31.65 95.51 72.05 65
5 03/17/2022 09:22:50 -80.74,-106.24 96.58 03/17/2022 09:21:53 -80.73,-106.26 96.61 0.99 57
6 03/17/2022 10:12:16 80.74, 61.42 83.41 03/17/2022 10:12:52 80.72, 61.34 83.40 2.62 36
7 03/19/2022 15:45:59 -80.74, 158.00 97.46 03/19/2022 15:45:54 -80.73, 157.88 97.48 2.49 5
8 03/21/2022 21:19:41 80.74,-105.50 81.67 03/21/2022 21:18:54 80.73,-105.40 81.66 1.84 47
9 03/21/2022 22:09:09 -80.71, 61.84 98.39 03/21/2022 22:09:55 -80.73, 61.98 98.35 3.21 46



Historial Predications of SNOs between LANDSAT-8 and NOAA-19
